Location: Poigny-la-Forêt
(48.6876°N, 1.7701°E)
Time: 11:44:58
(UTC+02:00)

ISS - Pass Details

Date: 28 March 2019
Orbit: 408 x 410 km, 51.6° (Epoch: 25 April)

Event Time Altitude Azimuth Distance (km) Brightness Sun altitude
Rises 22:29:31 0° 289° (WNW) 2,338 1.0 -29.0°
Reaches altitude 10° 22:31:37 10° 292° (WNW) 1,475 -0.2 -29.2°
Enters shadow 22:32:08 14° 293° (WNW) 1,267 -0.6 -29.3°
